Time,TemperatureF,DewpointF,PressureIn,WindDirection,WindDirectionDegrees,WindSpeedMPH,WindSpeedGustMPH,Humidity,HourlyPrecipIn,Conditions,Clouds,dailyrainin,SolarRadiationWatts/m^2,SoftwareType,DateUTC
2013-03-07 00:00:00,38.0,28.0,30.12,NNW,340,8.0,11.0,67,0.00,,,0.08,0,WeatherCatV1.10B1570,2013-03-07 05:00:00,
2013-03-07 00:05:00,38.0,28.0,30.12,NNW,346,7.0,12.0,67,0.00,,,0.00,0,WeatherCatV1.10B1570,2013-03-07 05:05:00,
2013-03-07 00:10:00,38.1,28.1,30.12,North,351,4.0,15.0,67,0.00,,,0.00,0,WeatherCatV1.10B1570,2013-03-07 05:10:00,
2013-03-07 00:15:00,38.2,27.9,30.12,NW,317,6.0,9.0,66,0.00,,,0.00,0,WeatherCatV1.10B1570,2013-03-07 05:15:00,
2013-03-07 00:20:00,38.2,27.9,30.12,NNW,333,7.0,11.0,66,0.00,,,0.00,0,WeatherCatV1.10B1570,2013-03-07 05:20:00,
2013-03-07 00:25:00,38.2,27.9,30.12,NNE,22,4.0,12.0,66,0.00,,,0.00,0,WeatherCatV1.10B1570,2013-03-07 05:25:00,
2013-03-07 00:30:00,38.3,28.0,30.12,NW,326,5.0,8.0,66,0.00,,,0.00,0,WeatherCatV1.10B1570,2013-03-07 05:30:00,
2013-03-07 00:35:00,38.3,28.0,30.12,NNW,347,7.0,13.0,66,0.00,,,0.00,0,WeatherCatV1.10B1570,2013-03-07 05:35:00,
2013-03-07 00:40:00,38.3,28.0,30.12,North,350,5.0,9.0,66,0.00,,,0.00,0,WeatherCatV1.10B1570,2013-03-07 05:40:00,
2013-03-07 00:45:00,38.2,27.9,30.12,North,0,10.0,14.0,66,0.00,,,0.00,0,WeatherCatV1.10B1570,2013-03-07 05:45:00,
2013-03-07 00:50:00,38.3,28.0,30.12,North,351,5.0,13.0,66,0.00,,,0.00,0,WeatherCatV1.10B1570,2013-03-07 05:50:00,
2013-03-07 00:55:00,38.3,28.0,30.12,NNW,342,6.0,10.0,66,0.00,,,0.00,0,WeatherCatV1.10B1570,2013-03-07 05:55:00,
2013-03-07 01:00:00,38.3,28.0,30.12,NW,323,8.0,13.0,66,0.00,,,0.00,0,WeatherCatV1.10B1570,2013-03-07 06:00:00,
2013-03-07 01:05:00,38.3,28.0,30.13,NNW,338,10.0,11.0,66,0.00,,,0.00,0,WeatherCatV1.10B1570,2013-03-07 06:05:00,
2013-03-07 01:10:00,38.3,28.0,30.13,NNW,336,5.0,15.0,66,0.00,,,0.00,0,WeatherCatV1.10B1570,2013-03-07 06:10:00,
2013-03-07 01:15:00,38.3,28.0,30.12,NNW,339,4.0,14.0,66,0.00,,,0.00,0,WeatherCatV1.10B1570,2013-03-07 06:15:00,
2013-03-07 01:20:00,38.2,27.9,30.13,NNW,328,3.0,5.0,66,0.00,,,0.00,0,WeatherCatV1.10B1570,2013-03-07 06:20:00,
2013-03-07 01:25:00,38.2,27.9,30.13,WSW,244,5.0,5.0,66,0.00,,,0.00,0,WeatherCatV1.10B1570,2013-03-07 06:25:00,
2013-03-07 01:30:00,38.2,28.2,30.13,West,277,3.0,5.0,67,0.00,,,0.00,0,WeatherCatV1.10B1570,2013-03-07 06:30:00,
2013-03-07 01:35:00,38.2,28.2,30.14,NNW,347,3.0,6.0,67,0.00,,,0.00,0,WeatherCatV1.10B1570,2013-03-07 06:35:00,
2013-03-07 01:40:00,38.2,28.2,30.14,NW,325,8.0,8.0,67,0.00,,,0.00,0,WeatherCatV1.10B1570,2013-03-07 06:40:00,
2013-03-07 01:45:00,38.2,28.2,30.14,West,276,8.0,10.0,67,0.00,,,0.00,0,WeatherCatV1.10B1570,2013-03-07 06:45:00,
2013-03-07 01:50:00,38.3,28.0,30.14,West,265,5.0,8.0,66,0.00,,,0.00,0,WeatherCatV1.10B1570,2013-03-07 06:50:00,
2013-03-07 01:55:00,38.3,28.0,30.15,West,276,1.0,8.0,66,0.00,,,0.00,0,WeatherCatV1.10B1570,2013-03-07 06:55:00,
2013-03-07 02:00:00,38.3,28.0,30.14,WNW,282,5.0,10.0,66,0.00,,,0.00,0,WeatherCatV1.10B1570,2013-03-07 07:00:00,
2013-03-07 02:05:00,38.2,27.9,30.14,WNW,284,5.0,6.0,66,0.00,,,0.00,0,WeatherCatV1.10B1570,2013-03-07 07:05:00,
2013-03-07 02:10:00,38.1,28.1,30.14,North,359,3.0,5.0,67,0.00,,,0.00,0,WeatherCatV1.10B1570,2013-03-07 07:10:00,
2013-03-07 02:15:00,38.1,27.8,30.14,NW,313,5.0,10.0,66,0.00,,,0.00,0,WeatherCatV1.10B1570,2013-03-07 07:15:00,
2013-03-07 02:20:00,38.0,28.0,30.14,NNW,330,5.0,8.0,67,0.00,,,0.00,0,WeatherCatV1.10B1570,2013-03-07 07:20:00,
2013-03-07 02:25:00,37.9,27.9,30.14,NNW,327,3.0,8.0,67,0.00,,,0.00,0,WeatherCatV1.10B1570,2013-03-07 07:25:00,
2013-03-07 02:30:00,37.8,27.8,30.14,NNW,330,7.0,10.0,67,0.00,,,0.00,0,WeatherCatV1.10B1570,2013-03-07 07:30:00,
2013-03-07 02:35:00,37.7,27.7,30.14,NNW,338,6.0,6.0,67,0.00,,,0.00,0,WeatherCatV1.10B1570,2013-03-07 07:35:00,
2013-03-07 02:38:00,37.6,27.6,30.14,NNW,337,4.0,11.0,67,0.00,,,0.00,0,WeatherCatV1.10B1570,2013-03-07 07:38:00,
2013-03-07 02:42:00,37.5,27.9,30.14,NNW,340,3.0,9.0,68,0.00,,,0.00,0,WeatherCatV1.10B1570,2013-03-07 07:42:00,
2013-03-07 02:47:00,37.3,27.7,30.14,NNW,328,6.0,8.0,68,0.00,,,0.00,0,WeatherCatV1.10B1570,2013-03-07 07:47:00,
2013-03-07 02:52:00,37.3,27.7,30.14,NNW,327,3.0,7.0,68,0.00,,,0.00,0,WeatherCatV1.10B1570,2013-03-07 07:52:00,
2013-03-07 02:57:00,37.3,27.7,30.13,NNW,328,6.0,11.0,68,0.00,,,0.00,0,WeatherCatV1.10B1570,2013-03-07 07:57:00,
2013-03-07 03:02:00,37.2,27.6,30.13,WNW,290,3.0,6.0,68,0.00,,,0.00,0,WeatherCatV1.10B1570,2013-03-07 08:02:00,
2013-03-07 03:07:00,37.0,27.4,30.13,NW,316,2.0,4.0,68,0.00,,,0.00,0,WeatherCatV1.10B1570,2013-03-07 08:07:00,
2013-03-07 03:12:00,37.1,27.5,30.13,NW,311,3.0,7.0,68,0.00,,,0.00,0,WeatherCatV1.10B1570,2013-03-07 08:12:00,
2013-03-07 03:17:00,37.1,27.5,30.12,NNW,335,3.0,5.0,68,0.00,,,0.00,0,WeatherCatV1.10B1570,2013-03-07 08:17:00,
2013-03-07 03:22:00,37.0,27.4,30.12,NNW,340,3.0,7.0,68,0.00,,,0.00,0,WeatherCatV1.10B1570,2013-03-07 08:22:00,
2013-03-07 03:27:00,36.9,27.3,30.12,NNW,333,7.0,11.0,68,0.00,,,0.00,0,WeatherCatV1.10B1570,2013-03-07 08:27:00,
2013-03-07 03:32:00,36.9,27.3,30.12,NW,315,5.0,8.0,68,0.00,,,0.00,0,WeatherCatV1.10B1570,2013-03-07 08:32:00,
2013-03-07 03:37:00,36.9,27.7,30.12,NNW,332,4.0,5.0,69,0.00,,,0.00,0,WeatherCatV1.10B1570,2013-03-07 08:37:00,
2013-03-07 03:42:00,36.8,27.6,30.12,NW,315,2.0,5.0,69,0.00,,,0.00,0,WeatherCatV1.10B1570,2013-03-07 08:42:00,
2013-03-07 03:47:00,36.8,27.6,30.13,West,270,4.0,5.0,69,0.00,,,0.00,0,WeatherCatV1.10B1570,2013-03-07 08:47:00,
2013-03-07 03:52:00,36.7,27.5,30.13,WNW,292,3.0,7.0,69,0.00,,,0.00,0,WeatherCatV1.10B1570,2013-03-07 08:52:00,
2013-03-07 03:57:00,36.7,27.5,30.13,West,276,3.0,7.0,69,0.00,,,0.00,0,WeatherCatV1.10B1570,2013-03-07 08:57:00,
2013-03-07 04:02:00,36.9,27.7,30.14,NNW,328,4.0,5.0,69,0.00,,,0.00,0,WeatherCatV1.10B1570,2013-03-07 09:02:00,
2013-03-07 04:07:00,36.9,27.7,30.13,NNW,330,3.0,4.0,69,0.00,,,0.00,0,WeatherCatV1.10B1570,2013-03-07 09:07:00,
2013-03-07 04:12:00,37.0,27.8,30.14,NNW,342,3.0,5.0,69,0.00,,,0.00,0,WeatherCatV1.10B1570,2013-03-07 09:12:00,
2013-03-07 04:17:00,37.1,27.5,30.13,NNW,346,6.0,9.0,68,0.00,,,0.00,0,WeatherCatV1.10B1570,2013-03-07 09:17:00,
2013-03-07 04:22:00,37.1,27.5,30.13,NW,311,1.0,5.0,68,0.00,,,0.00,0,WeatherCatV1.10B1570,2013-03-07 09:22:00,
2013-03-07 04:27:00,37.1,27.5,30.13,North,353,4.0,8.0,68,0.00,,,0.00,0,WeatherCatV1.10B1570,2013-03-07 09:27:00,
2013-03-07 04:32:00,37.1,27.5,30.14,NNW,335,3.0,9.0,68,0.00,,,0.00,0,WeatherCatV1.10B1570,2013-03-07 09:32:00,
2013-03-07 04:37:00,37.1,27.9,30.14,WNW,300,3.0,7.0,69,0.00,,,0.00,0,WeatherCatV1.10B1570,2013-03-07 09:37:00,
2013-03-07 04:42:00,37.0,27.8,30.14,NNW,344,5.0,7.0,69,0.00,,,0.00,0,WeatherCatV1.10B1570,2013-03-07 09:42:00,
2013-03-07 04:47:00,37.1,27.5,30.14,NNW,335,4.0,10.0,68,0.00,,,0.00,0,WeatherCatV1.10B1570,2013-03-07 09:47:00,
2013-03-07 04:52:00,37.1,27.9,30.14,NW,306,7.0,8.0,69,0.00,,,0.00,0,WeatherCatV1.10B1570,2013-03-07 09:52:00,
2013-03-07 04:57:00,37.1,27.9,30.14,NNW,330,4.0,12.0,69,0.00,,,0.00,0,WeatherCatV1.10B1570,2013-03-07 09:57:00,
2013-03-07 05:02:00,37.1,27.9,30.14,North,354,4.0,11.0,69,0.00,,,0.00,0,WeatherCatV1.10B1570,2013-03-07 10:02:00,
2013-03-07 05:07:00,37.1,27.9,30.14,NNW,339,4.0,9.0,69,0.00,,,0.00,0,WeatherCatV1.10B1570,2013-03-07 10:07:00,
2013-03-07 05:12:00,37.0,27.8,30.15,NNW,334,6.0,10.0,69,0.00,,,0.00,0,WeatherCatV1.10B1570,2013-03-07 10:12:00,
2013-03-07 05:17:00,37.0,27.8,30.15,NNW,327,7.0,12.0,69,0.00,,,0.00,0,WeatherCatV1.10B1570,2013-03-07 10:17:00,
2013-03-07 05:22:00,37.0,27.8,30.15,NNW,342,4.0,9.0,69,0.00,,,0.00,0,WeatherCatV1.10B1570,2013-03-07 10:22:00,
2013-03-07 05:27:00,37.0,27.8,30.16,NNW,334,6.0,8.0,69,0.00,,,0.00,0,WeatherCatV1.10B1570,2013-03-07 10:27:00,
2013-03-07 05:32:00,37.0,27.8,30.16,NNW,330,3.0,7.0,69,0.00,,,0.00,0,WeatherCatV1.10B1570,2013-03-07 10:32:00,
2013-03-07 05:37:00,36.9,27.7,30.16,NW,309,6.0,7.0,69,0.00,,,0.00,0,WeatherCatV1.10B1570,2013-03-07 10:37:00,
2013-03-07 05:42:00,37.0,27.8,30.16,West,272,0.0,4.0,69,0.00,,,0.00,0,WeatherCatV1.10B1570,2013-03-07 10:42:00,
2013-03-07 05:47:00,36.9,28.0,30.17,NW,325,6.0,7.0,70,0.00,,,0.00,0,WeatherCatV1.10B1570,2013-03-07 10:47:00,
2013-03-07 05:52:00,36.9,28.0,30.17,North,357,4.0,4.0,70,0.00,,,0.00,0,WeatherCatV1.10B1570,2013-03-07 10:52:00,
2013-03-07 05:57:00,36.9,28.0,30.17,NNW,329,5.0,6.0,70,0.00,,,0.00,0,WeatherCatV1.10B1570,2013-03-07 10:57:00,
2013-03-07 06:02:00,36.9,28.0,30.17,NNW,340,4.0,7.0,70,0.00,,,0.00,0,WeatherCatV1.10B1570,2013-03-07 11:02:00,
2013-03-07 06:07:00,37.0,28.1,30.18,WNW,291,0.0,2.0,70,0.00,,,0.00,0,WeatherCatV1.10B1570,2013-03-07 11:07:00,
2013-03-07 06:12:00,37.0,27.8,30.18,NNW,334,5.0,5.0,69,0.00,,,0.00,0,WeatherCatV1.10B1570,2013-03-07 11:12:00,
2013-03-07 06:17:00,37.0,28.1,30.18,NNW,330,2.0,4.0,70,0.00,,,0.00,0,WeatherCatV1.10B1570,2013-03-07 11:17:00,
2013-03-07 06:22:00,36.9,28.0,30.19,West,280,2.0,3.0,70,0.00,,,0.00,0,WeatherCatV1.10B1570,2013-03-07 11:22:00,
2013-03-07 06:27:00,37.0,28.1,30.19,WNW,300,3.0,4.0,70,0.00,,,0.00,0,WeatherCatV1.10B1570,2013-03-07 11:27:00,
2013-03-07 06:32:00,37.1,27.9,30.19,WNW,294,2.0,3.0,69,0.00,,,0.00,0,WeatherCatV1.10B1570,2013-03-07 11:32:00,
2013-03-07 06:37:00,37.0,28.1,30.19,West,261,3.0,4.0,70,0.00,,,0.00,0,WeatherCatV1.10B1570,2013-03-07 11:37:00,
2013-03-07 06:42:00,37.1,28.2,30.20,SW,214,1.0,3.0,70,0.00,,,0.00,0,WeatherCatV1.10B1570,2013-03-07 11:42:00,
2013-03-07 06:47:00,37.0,28.1,30.20,NNW,336,2.0,2.0,70,0.00,,,0.00,5,WeatherCatV1.10B1570,2013-03-07 11:47:00,
2013-03-07 06:52:00,37.1,27.9,30.20,NW,324,1.0,4.0,69,0.00,,,0.00,7,WeatherCatV1.10B1570,2013-03-07 11:52:00,
2013-03-07 06:57:00,37.0,28.1,30.20,NW,324,0.0,1.0,70,0.00,,,0.00,11,WeatherCatV1.10B1570,2013-03-07 11:57:00,
2013-03-07 07:02:00,36.9,28.4,30.21,WNW,296,0.0,1.0,71,0.00,,,0.00,12,WeatherCatV1.10B1570,2013-03-07 12:02:00,
2013-03-07 07:07:00,36.8,28.3,30.21,WNW,296,0.0,0.0,71,0.00,,,0.00,18,WeatherCatV1.10B1570,2013-03-07 12:07:00,
2013-03-07 07:12:00,36.8,28.3,30.21,WNW,282,0.0,2.0,71,0.00,,,0.00,23,WeatherCatV1.10B1570,2013-03-07 12:12:00,
2013-03-07 07:17:00,36.9,28.0,30.22,West,281,1.0,2.0,70,0.00,,,0.00,26,WeatherCatV1.10B1570,2013-03-07 12:17:00,
2013-03-07 07:22:00,37.0,28.5,30.22,SW,225,2.0,3.0,71,0.00,,,0.00,35,WeatherCatV1.10B1570,2013-03-07 12:22:00,
2013-03-07 07:27:00,36.9,28.4,30.22,West,278,2.0,3.0,71,0.00,,,0.00,37,WeatherCatV1.10B1570,2013-03-07 12:27:00,
2013-03-07 07:32:00,36.8,28.3,30.23,SW,215,2.0,2.0,71,0.00,,,0.00,47,WeatherCatV1.10B1570,2013-03-07 12:32:00,
2013-03-07 07:37:00,36.6,28.1,30.23,SW,222,1.0,3.0,71,0.00,,,0.00,65,WeatherCatV1.10B1570,2013-03-07 12:37:00,
2013-03-07 07:42:00,36.6,28.1,30.23,West,274,2.0,5.0,71,0.00,,,0.00,116,WeatherCatV1.10B1570,2013-03-07 12:42:00,
2013-03-07 07:47:00,37.1,28.6,30.23,SW,223,0.0,2.0,71,0.00,,,0.00,118,WeatherCatV1.10B1570,2013-03-07 12:47:00,
2013-03-07 07:52:00,37.2,28.0,30.23,West,269,3.0,4.0,69,0.00,,,0.00,200,WeatherCatV1.10B1570,2013-03-07 12:52:00,
2013-03-07 07:57:00,37.5,28.3,30.23,WNW,298,2.0,4.0,69,0.00,,,0.00,207,WeatherCatV1.10B1570,2013-03-07 12:57:00,
2013-03-07 08:02:00,38.0,28.4,30.23,WNW,297,2.0,4.0,68,0.00,,,0.00,218,WeatherCatV1.10B1570,2013-03-07 13:02:00,
2013-03-07 08:07:00,37.8,28.2,30.23,WNW,297,6.0,6.0,68,0.00,,,0.00,227,WeatherCatV1.10B1570,2013-03-07 13:07:00,
2013-03-07 08:12:00,37.7,27.7,30.23,SW,235,1.0,6.0,67,0.00,,,0.00,244,WeatherCatV1.10B1570,2013-03-07 13:12:00,
2013-03-07 08:17:00,38.3,28.7,30.23,NW,310,0.0,2.0,68,0.00,,,0.00,264,WeatherCatV1.10B1570,2013-03-07 13:17:00,
2013-03-07 08:22:00,38.7,28.0,30.23,NW,323,3.0,6.0,65,0.00,,,0.00,279,WeatherCatV1.10B1570,2013-03-07 13:22:00,
2013-03-07 08:27:00,39.0,28.2,30.23,NW,310,2.0,4.0,65,0.00,,,0.00,295,WeatherCatV1.10B1570,2013-03-07 13:27:00,
2013-03-07 08:32:00,39.4,28.2,30.23,WNW,288,4.0,7.0,64,0.00,,,0.00,313,WeatherCatV1.10B1570,2013-03-07 13:32:00,
2013-03-07 08:37:00,39.4,28.2,30.24,WSW,249,5.0,6.0,64,0.00,,,0.00,332,WeatherCatV1.10B1570,2013-03-07 13:37:00,
2013-03-07 08:42:00,39.5,28.0,30.24,WNW,288,1.0,3.0,63,0.00,,,0.00,352,WeatherCatV1.10B1570,2013-03-07 13:42:00,
2013-03-07 08:47:00,39.8,27.9,30.24,West,259,4.0,6.0,62,0.00,,,0.00,371,WeatherCatV1.10B1570,2013-03-07 13:47:00,
2013-03-07 08:52:00,39.8,27.9,30.24,North,2,4.0,6.0,62,0.00,,,0.00,396,WeatherCatV1.10B1570,2013-03-07 13:52:00,
2013-03-07 08:57:00,40.0,28.4,30.23,West,276,4.0,7.0,63,0.00,,,0.00,427,WeatherCatV1.10B1570,2013-03-07 13:57:00,
2013-03-07 09:02:00,40.2,28.6,30.23,WNW,302,6.0,7.0,63,0.00,,,0.00,427,WeatherCatV1.10B1570,2013-03-07 14:02:00,
2013-03-07 09:07:00,39.9,28.3,30.24,WNW,298,3.0,6.0,63,0.00,,,0.00,494,WeatherCatV1.10B1570,2013-03-07 14:07:00,
2013-03-07 09:12:00,40.6,28.6,30.24,NW,306,5.0,5.0,62,0.00,,,0.00,251,WeatherCatV1.10B1570,2013-03-07 14:12:00,
2013-03-07 09:17:00,40.9,28.1,30.24,WNW,288,7.0,11.0,60,0.00,,,0.00,568,WeatherCatV1.10B1570,2013-03-07 14:17:00,
2013-03-07 09:22:00,40.9,28.1,30.24,North,9,4.0,10.0,60,0.00,,,0.00,559,WeatherCatV1.10B1570,2013-03-07 14:22:00,
2013-03-07 09:27:00,41.7,28.4,30.24,NNW,336,4.0,10.0,59,0.00,,,0.00,552,WeatherCatV1.10B1570,2013-03-07 14:27:00,
2013-03-07 09:32:00,41.5,27.8,30.24,NNW,334,5.0,8.0,58,0.00,,,0.00,151,WeatherCatV1.10B1570,2013-03-07 14:32:00,
2013-03-07 09:37:00,41.5,27.8,30.24,NW,311,10.0,11.0,58,0.00,,,0.00,561,WeatherCatV1.10B1570,2013-03-07 14:37:00,
2013-03-07 09:42:00,41.6,28.3,30.24,NW,321,9.0,12.0,59,0.00,,,0.00,577,WeatherCatV1.10B1570,2013-03-07 14:42:00,
2013-03-07 09:47:00,41.2,27.6,30.24,North,359,6.0,13.0,58,0.00,,,0.00,163,WeatherCatV1.10B1570,2013-03-07 14:47:00,
2013-03-07 09:52:00,41.4,27.7,30.24,NW,325,9.0,10.0,58,0.00,,,0.00,517,WeatherCatV1.10B1570,2013-03-07 14:52:00,
2013-03-07 09:57:00,41.4,27.7,30.24,NW,317,8.0,10.0,58,0.00,,,0.00,601,WeatherCatV1.10B1570,2013-03-07 14:57:00,
2013-03-07 10:02:00,42.4,28.3,30.24,NNW,335,12.0,12.0,57,0.00,,,0.00,622,WeatherCatV1.10B1570,2013-03-07 15:02:00,
2013-03-07 10:07:00,43.0,28.4,30.24,NW,311,8.0,11.0,56,0.00,,,0.00,631,WeatherCatV1.10B1570,2013-03-07 15:07:00,
2013-03-07 10:12:00,42.8,27.8,30.24,NNW,331,6.0,15.0,55,0.00,,,0.00,663,WeatherCatV1.10B1570,2013-03-07 15:12:00,
2013-03-07 10:17:00,42.5,28.4,30.24,North,357,7.0,11.0,57,0.00,,,0.00,668,WeatherCatV1.10B1570,2013-03-07 15:17:00,
2013-03-07 10:22:00,42.6,28.0,30.24,NNW,336,6.0,10.0,56,0.00,,,0.00,223,WeatherCatV1.10B1570,2013-03-07 15:22:00,
2013-03-07 10:27:00,42.5,28.4,30.24,NNW,332,6.0,13.0,57,0.00,,,0.00,230,WeatherCatV1.10B1570,2013-03-07 15:27:00,
2013-03-07 10:32:00,42.7,28.1,30.24,WNW,301,5.0,11.0,56,0.00,,,0.00,332,WeatherCatV1.10B1570,2013-03-07 15:32:00,
2013-03-07 10:37:00,43.1,28.0,30.24,North,358,9.0,15.0,55,0.00,,,0.00,350,WeatherCatV1.10B1570,2013-03-07 15:37:00,
2013-03-07 10:42:00,43.8,29.1,30.24,North,7,1.0,5.0,56,0.00,,,0.00,803,WeatherCatV1.10B1570,2013-03-07 15:42:00,
2013-03-07 10:47:00,44.5,28.4,30.24,West,270,5.0,13.0,53,0.00,,,0.00,294,WeatherCatV1.10B1570,2013-03-07 15:47:00,
2013-03-07 10:52:00,43.6,28.1,30.24,North,351,11.0,11.0,54,0.00,,,0.00,241,WeatherCatV1.10B1570,2013-03-07 15:52:00,
2013-03-07 10:57:00,43.2,28.1,30.24,WNW,302,6.0,13.0,55,0.00,,,0.00,308,WeatherCatV1.10B1570,2013-03-07 15:57:00,
2013-03-07 11:02:00,43.4,28.8,30.24,North,350,5.0,7.0,56,0.00,,,0.00,248,WeatherCatV1.10B1570,2013-03-07 16:02:00,
2013-03-07 11:07:00,43.8,28.7,30.24,WNW,289,7.0,7.0,55,0.00,,,0.00,889,WeatherCatV1.10B1570,2013-03-07 16:07:00,
2013-03-07 11:12:00,43.8,28.2,30.24,WNW,298,4.0,9.0,54,0.00,,,0.00,942,WeatherCatV1.10B1570,2013-03-07 16:12:00,
2013-03-07 11:17:00,43.4,27.9,30.24,NW,324,9.0,11.0,54,0.00,,,0.00,239,WeatherCatV1.10B1570,2013-03-07 16:17:00,
2013-03-07 11:22:00,43.5,28.0,30.24,North,8,8.0,11.0,54,0.00,,,0.00,821,WeatherCatV1.10B1570,2013-03-07 16:22:00,
2013-03-07 11:27:00,44.2,28.2,30.24,NNW,339,9.0,15.0,53,0.00,,,0.00,838,WeatherCatV1.10B1570,2013-03-07 16:27:00,
2013-03-07 11:32:00,44.7,28.6,30.24,NW,314,7.0,7.0,53,0.00,,,0.00,847,WeatherCatV1.10B1570,2013-03-07 16:32:00,
2013-03-07 11:37:00,44.9,27.9,30.24,NNW,344,3.0,10.0,51,0.00,,,0.00,800,WeatherCatV1.10B1570,2013-03-07 16:37:00,
2013-03-07 11:42:00,44.9,28.4,30.24,NW,321,3.0,14.0,52,0.00,,,0.00,912,WeatherCatV1.10B1570,2013-03-07 16:42:00,
2013-03-07 11:47:00,45.4,28.8,30.23,NNW,341,6.0,10.0,52,0.00,,,0.00,327,WeatherCatV1.10B1570,2013-03-07 16:47:00,
2013-03-07 11:52:00,44.8,28.3,30.23,NW,326,4.0,9.0,52,0.00,,,0.00,334,WeatherCatV1.10B1570,2013-03-07 16:52:00,
2013-03-07 11:57:00,44.5,27.5,30.23,NNE,18,3.0,6.0,51,0.00,,,0.00,341,WeatherCatV1.10B1570,2013-03-07 16:57:00,
2013-03-07 12:02:00,44.7,28.2,30.23,WNW,301,7.0,13.0,52,0.00,,,0.00,329,WeatherCatV1.10B1570,2013-03-07 17:02:00,
2013-03-07 12:07:00,44.9,27.9,30.23,North,356,4.0,12.0,51,0.00,,,0.00,325,WeatherCatV1.10B1570,2013-03-07 17:07:00,
2013-03-07 12:12:00,45.5,28.4,30.22,ENE,66,17.0,17.0,51,0.00,,,0.00,373,WeatherCatV1.10B1570,2013-03-07 17:12:00,
2013-03-07 12:17:00,45.4,27.9,30.22,NW,315,10.0,13.0,50,0.00,,,0.00,373,WeatherCatV1.10B1570,2013-03-07 17:17:00,
2013-03-07 12:22:00,45.6,28.0,30.22,NNW,344,4.0,12.0,50,0.00,,,0.00,886,WeatherCatV1.10B1570,2013-03-07 17:22:00,
2013-03-07 12:27:00,46.9,28.8,30.22,NW,320,11.0,12.0,49,0.00,,,0.00,824,WeatherCatV1.10B1570,2013-03-07 17:27:00,
2013-03-07 12:32:00,47.5,29.3,30.22,NW,323,5.0,9.0,49,0.00,,,0.00,817,WeatherCatV1.10B1570,2013-03-07 17:32:00,
2013-03-07 12:37:00,47.1,28.4,30.21,NNW,334,5.0,13.0,48,0.00,,,0.00,816,WeatherCatV1.10B1570,2013-03-07 17:37:00,
2013-03-07 12:42:00,46.8,28.2,30.21,NNW,338,3.0,11.0,48,0.00,,,0.00,809,WeatherCatV1.10B1570,2013-03-07 17:42:00,
2013-03-07 12:47:00,47.8,29.1,30.21,North,1,6.0,13.0,48,0.00,,,0.00,807,WeatherCatV1.10B1570,2013-03-07 17:47:00,
2013-03-07 12:52:00,47.5,28.8,30.21,SSW,205,3.0,7.0,48,0.00,,,0.00,803,WeatherCatV1.10B1570,2013-03-07 17:52:00,
2013-03-07 12:57:00,47.7,29.0,30.21,NW,326,6.0,13.0,48,0.00,,,0.00,812,WeatherCatV1.10B1570,2013-03-07 17:57:00,
2013-03-07 13:02:00,47.7,29.0,30.20,NNW,340,6.0,10.0,48,0.00,,,0.00,803,WeatherCatV1.10B1570,2013-03-07 18:02:00,
2013-03-07 13:07:00,48.3,28.5,30.20,NNE,13,9.0,10.0,46,0.00,,,0.00,824,WeatherCatV1.10B1570,2013-03-07 18:07:00,
2013-03-07 13:12:00,48.8,30.0,30.20,NNW,330,10.0,10.0,48,0.00,,,0.00,772,WeatherCatV1.10B1570,2013-03-07 18:12:00,
2013-03-07 13:17:00,48.8,30.0,30.19,North,358,5.0,9.0,48,0.00,,,0.00,561,WeatherCatV1.10B1570,2013-03-07 18:17:00,
2013-03-07 13:22:00,48.7,29.4,30.19,NW,304,8.0,14.0,47,0.00,,,0.00,807,WeatherCatV1.10B1570,2013-03-07 18:22:00,
2013-03-07 13:27:00,48.7,28.9,30.19,WNW,286,2.0,12.0,46,0.00,,,0.00,800,WeatherCatV1.10B1570,2013-03-07 18:27:00,
2013-03-07 13:32:00,48.9,30.1,30.19,WNW,299,7.0,8.0,48,0.00,,,0.00,796,WeatherCatV1.10B1570,2013-03-07 18:32:00,
2013-03-07 13:37:00,48.7,28.9,30.18,North,357,5.0,10.0,46,0.00,,,0.00,766,WeatherCatV1.10B1570,2013-03-07 18:37:00,
2013-03-07 13:42:00,48.9,29.6,30.18,North,349,5.0,8.0,47,0.00,,,0.00,775,WeatherCatV1.10B1570,2013-03-07 18:42:00,
2013-03-07 13:47:00,49.2,29.3,30.18,North,3,12.0,14.0,46,0.00,,,0.00,765,WeatherCatV1.10B1570,2013-03-07 18:47:00,
2013-03-07 13:52:00,49.2,28.8,30.17,NNW,333,8.0,8.0,45,0.00,,,0.00,754,WeatherCatV1.10B1570,2013-03-07 18:52:00,
2013-03-07 13:57:00,49.1,27.6,30.18,NNW,336,8.0,14.0,43,0.00,,,0.00,751,WeatherCatV1.10B1570,2013-03-07 18:57:00,
2013-03-07 14:02:00,49.2,29.3,30.18,WNW,296,3.0,6.0,46,0.00,,,0.00,751,WeatherCatV1.10B1570,2013-03-07 19:02:00,
2013-03-07 14:07:00,49.6,28.6,30.17,NNW,346,10.0,11.0,44,0.00,,,0.00,747,WeatherCatV1.10B1570,2013-03-07 19:07:00,
2013-03-07 14:12:00,48.9,29.0,30.17,NNW,339,7.0,11.0,46,0.00,,,0.00,726,WeatherCatV1.10B1570,2013-03-07 19:12:00,
2013-03-07 14:17:00,48.8,28.9,30.17,North,356,5.0,11.0,46,0.00,,,0.00,643,WeatherCatV1.10B1570,2013-03-07 19:17:00,
2013-03-07 14:22:00,49.1,29.2,30.17,NE,52,3.0,10.0,46,0.00,,,0.00,703,WeatherCatV1.10B1570,2013-03-07 19:22:00,
2013-03-07 14:26:00,49.3,29.4,30.17,North,7,9.0,13.0,46,0.00,,,0.00,705,WeatherCatV1.10B1570,2013-03-07 19:26:00,
2013-03-07 14:31:00,49.1,29.7,30.17,NNW,328,7.0,7.0,47,0.00,,,0.00,693,WeatherCatV1.10B1570,2013-03-07 19:31:00,
2013-03-07 14:36:00,50.1,29.6,30.17,NW,305,3.0,7.0,45,0.00,,,0.00,680,WeatherCatV1.10B1570,2013-03-07 19:36:00,
2013-03-07 14:41:00,49.6,29.1,30.17,NNW,328,7.0,9.0,45,0.00,,,0.00,670,WeatherCatV1.10B1570,2013-03-07 19:41:00,
2013-03-07 14:46:00,49.5,29.0,30.18,North,353,10.0,15.0,45,0.00,,,0.00,668,WeatherCatV1.10B1570,2013-03-07 19:46:00,
2013-03-07 14:51:00,49.7,29.8,30.18,NNW,346,7.0,10.0,46,0.00,,,0.00,664,WeatherCatV1.10B1570,2013-03-07 19:51:00,
2013-03-07 14:56:00,49.2,29.3,30.18,North,8,3.0,9.0,46,0.00,,,0.00,636,WeatherCatV1.10B1570,2013-03-07 19:56:00,
2013-03-07 15:01:00,50.0,30.0,30.18,WNW,295,9.0,10.0,46,0.00,,,0.00,619,WeatherCatV1.10B1570,2013-03-07 20:01:00,
2013-03-07 15:06:00,49.2,28.8,30.18,NW,321,7.0,11.0,45,0.00,,,0.00,601,WeatherCatV1.10B1570,2013-03-07 20:06:00,
2013-03-07 15:11:00,49.0,29.1,30.18,North,7,11.0,14.0,46,0.00,,,0.00,577,WeatherCatV1.10B1570,2013-03-07 20:11:00,
2013-03-07 15:16:00,49.2,29.3,30.18,NNW,342,4.0,6.0,46,0.00,,,0.00,587,WeatherCatV1.10B1570,2013-03-07 20:16:00,
2013-03-07 15:21:00,49.4,29.0,30.18,NW,315,8.0,15.0,45,0.00,,,0.00,568,WeatherCatV1.10B1570,2013-03-07 20:21:00,
2013-03-07 15:26:00,49.1,28.7,30.18,NNW,335,5.0,8.0,45,0.00,,,0.00,550,WeatherCatV1.10B1570,2013-03-07 20:26:00,
2013-03-07 15:31:00,49.0,29.1,30.18,North,11,8.0,10.0,46,0.00,,,0.00,540,WeatherCatV1.10B1570,2013-03-07 20:31:00,
2013-03-07 15:36:00,49.0,28.6,30.18,NNE,24,6.0,13.0,45,0.00,,,0.00,517,WeatherCatV1.10B1570,2013-03-07 20:36:00,
2013-03-07 15:41:00,48.6,29.3,30.18,NNE,14,7.0,18.0,47,0.00,,,0.00,501,WeatherCatV1.10B1570,2013-03-07 20:41:00,
2013-03-07 15:46:00,48.5,29.2,30.19,NW,310,6.0,10.0,47,0.00,,,0.00,485,WeatherCatV1.10B1570,2013-03-07 20:46:00,
2013-03-07 15:51:00,48.4,28.6,30.19,NNW,338,8.0,10.0,46,0.00,,,0.00,473,WeatherCatV1.10B1570,2013-03-07 20:51:00,
2013-03-07 15:56:00,48.6,29.3,30.19,NW,310,7.0,8.0,47,0.00,,,0.00,452,WeatherCatV1.10B1570,2013-03-07 20:56:00,
2013-03-07 16:01:00,48.2,28.4,30.19,North,0,11.0,14.0,46,0.00,,,0.00,438,WeatherCatV1.10B1570,2013-03-07 21:01:00,
2013-03-07 16:06:00,48.0,28.7,30.19,North,351,8.0,13.0,47,0.00,,,0.00,422,WeatherCatV1.10B1570,2013-03-07 21:06:00,
2013-03-07 16:11:00,47.7,28.5,30.19,North,351,11.0,11.0,47,0.00,,,0.00,403,WeatherCatV1.10B1570,2013-03-07 21:11:00,
2013-03-07 16:16:00,47.2,28.0,30.20,NW,307,8.0,13.0,47,0.00,,,0.00,381,WeatherCatV1.10B1570,2013-03-07 21:16:00,
2013-03-07 16:21:00,47.2,28.0,30.20,NW,319,10.0,13.0,47,0.00,,,0.00,369,WeatherCatV1.10B1570,2013-03-07 21:21:00,
2013-03-07 16:26:00,46.9,28.2,30.20,North,352,7.0,9.0,48,0.00,,,0.00,350,WeatherCatV1.10B1570,2013-03-07 21:26:00,
2013-03-07 16:31:00,46.7,27.6,30.20,NW,313,6.0,11.0,47,0.00,,,0.00,332,WeatherCatV1.10B1570,2013-03-07 21:31:00,
2013-03-07 16:36:00,46.9,28.8,30.20,North,359,9.0,12.0,49,0.00,,,0.00,302,WeatherCatV1.10B1570,2013-03-07 21:36:00,
2013-03-07 16:41:00,46.3,27.7,30.20,NW,324,11.0,18.0,48,0.00,,,0.00,292,WeatherCatV1.10B1570,2013-03-07 21:41:00,
2013-03-07 16:46:00,46.0,27.9,30.20,NNW,341,2.0,4.0,49,0.00,,,0.00,272,WeatherCatV1.10B1570,2013-03-07 21:46:00,
2013-03-07 16:51:00,45.8,27.2,30.20,NNW,340,5.0,18.0,48,0.00,,,0.00,246,WeatherCatV1.10B1570,2013-03-07 21:51:00,
2013-03-07 16:56:00,45.8,27.2,30.21,NNW,344,8.0,12.0,48,0.00,,,0.00,174,WeatherCatV1.10B1570,2013-03-07 21:56:00,
2013-03-07 17:01:00,45.5,27.0,30.21,NW,324,11.0,15.0,48,0.00,,,0.00,146,WeatherCatV1.10B1570,2013-03-07 22:01:00,
2013-03-07 17:06:00,45.1,26.6,30.22,NNE,20,12.0,16.0,48,0.00,,,0.00,90,WeatherCatV1.10B1570,2013-03-07 22:06:00,
2013-03-07 17:11:00,44.8,26.3,30.22,NW,321,8.0,15.0,48,0.00,,,0.00,81,WeatherCatV1.10B1570,2013-03-07 22:11:00,
2013-03-07 17:16:00,44.6,26.6,30.22,NNW,342,9.0,10.0,49,0.00,,,0.00,74,WeatherCatV1.10B1570,2013-03-07 22:16:00,
2013-03-07 17:21:00,44.6,26.6,30.22,NW,309,7.0,8.0,49,0.00,,,0.00,70,WeatherCatV1.10B1570,2013-03-07 22:21:00,
2013-03-07 17:26:00,44.6,26.1,30.22,NW,322,5.0,14.0,48,0.00,,,0.00,62,WeatherCatV1.10B1570,2013-03-07 22:26:00,
2013-03-07 17:31:00,44.4,26.5,30.22,North,349,9.0,12.0,49,0.00,,,0.00,70,WeatherCatV1.10B1570,2013-03-07 22:31:00,
2013-03-07 17:36:00,44.2,26.8,30.23,NW,326,9.0,16.0,50,0.00,,,0.00,37,WeatherCatV1.10B1570,2013-03-07 22:36:00,
2013-03-07 17:41:00,43.9,26.5,30.23,NNW,342,10.0,14.0,50,0.00,,,0.00,35,WeatherCatV1.10B1570,2013-03-07 22:41:00,
2013-03-07 17:46:00,43.6,26.2,30.23,NW,325,11.0,14.0,50,0.00,,,0.00,26,WeatherCatV1.10B1570,2013-03-07 22:46:00,
2013-03-07 17:51:00,43.3,25.4,30.23,North,349,7.0,13.0,49,0.00,,,0.00,23,WeatherCatV1.10B1570,2013-03-07 22:51:00,
2013-03-07 17:56:00,43.0,25.6,30.23,North,356,10.0,14.0,50,0.00,,,0.00,19,WeatherCatV1.10B1570,2013-03-07 22:56:00,
2013-03-07 18:01:00,42.7,26.3,30.24,NNW,329,9.0,9.0,52,0.00,,,0.00,16,WeatherCatV1.10B1570,2013-03-07 23:01:00,
2013-03-07 18:06:00,42.5,25.7,30.24,NW,321,11.0,14.0,51,0.00,,,0.00,12,WeatherCatV1.10B1570,2013-03-07 23:06:00,
2013-03-07 18:11:00,42.3,25.9,30.24,North,350,4.0,8.0,52,0.00,,,0.00,9,WeatherCatV1.10B1570,2013-03-07 23:11:00,
2013-03-07 18:16:00,42.0,25.7,30.24,NW,319,14.0,15.0,52,0.00,,,0.00,7,WeatherCatV1.10B1570,2013-03-07 23:16:00,
2013-03-07 18:21:00,41.8,25.9,30.25,NNW,333,4.0,9.0,53,0.00,,,0.00,0,WeatherCatV1.10B1570,2013-03-07 23:21:00,
2013-03-07 18:26:00,41.5,25.7,30.25,NNE,16,10.0,12.0,53,0.00,,,0.00,0,WeatherCatV1.10B1570,2013-03-07 23:26:00,
2013-03-07 18:31:00,41.4,25.6,30.25,North,354,8.0,10.0,53,0.00,,,0.00,0,WeatherCatV1.10B1570,2013-03-07 23:31:00,
2013-03-07 18:36:00,41.2,25.8,30.25,NNW,331,4.0,8.0,54,0.00,,,0.00,0,WeatherCatV1.10B1570,2013-03-07 23:36:00,
2013-03-07 18:41:00,41.0,25.6,30.25,NNW,342,5.0,10.0,54,0.00,,,0.00,0,WeatherCatV1.10B1570,2013-03-07 23:41:00,
2013-03-07 18:46:00,40.8,25.5,30.25,NNW,330,8.0,8.0,54,0.00,,,0.00,0,WeatherCatV1.10B1570,2013-03-07 23:46:00,
2013-03-07 18:51:00,40.7,25.8,30.26,North,349,7.0,8.0,55,0.00,,,0.00,0,WeatherCatV1.10B1570,2013-03-07 23:51:00,
2013-03-07 18:56:00,40.5,25.6,30.26,NNW,335,5.0,9.0,55,0.00,,,0.00,0,WeatherCatV1.10B1570,2013-03-07 23:56:00,
2013-03-07 19:01:00,40.4,25.5,30.27,NW,318,5.0,6.0,55,0.00,,,0.00,0,WeatherCatV1.10B1570,2013-03-08 00:01:00,
2013-03-07 19:06:00,40.2,25.3,30.27,NNW,338,2.0,10.0,55,0.00,,,0.00,0,WeatherCatV1.10B1570,2013-03-08 00:06:00,
2013-03-07 19:11:00,40.1,25.7,30.27,North,2,7.0,9.0,56,0.00,,,0.00,0,WeatherCatV1.10B1570,2013-03-08 00:11:00,
2013-03-07 19:16:00,40.0,25.6,30.27,NNW,345,13.0,14.0,56,0.00,,,0.00,0,WeatherCatV1.10B1570,2013-03-08 00:16:00,
2013-03-07 19:21:00,39.9,25.5,30.27,North,9,6.0,12.0,56,0.00,,,0.00,0,WeatherCatV1.10B1570,2013-03-08 00:21:00,
2013-03-07 19:26:00,39.8,25.4,30.28,NNW,344,5.0,6.0,56,0.00,,,0.00,0,WeatherCatV1.10B1570,2013-03-08 00:26:00,
2013-03-07 19:31:00,39.7,25.3,30.28,NW,307,8.0,12.0,56,0.00,,,0.00,0,WeatherCatV1.10B1570,2013-03-08 00:31:00,
2013-03-07 19:36:00,39.6,25.2,30.28,NNW,335,4.0,11.0,56,0.00,,,0.00,0,WeatherCatV1.10B1570,2013-03-08 00:36:00,
2013-03-07 19:41:00,39.5,25.5,30.28,NW,309,8.0,9.0,57,0.00,,,0.00,0,WeatherCatV1.10B1570,2013-03-08 00:41:00,
2013-03-07 19:46:00,39.3,25.4,30.28,NNW,345,8.0,10.0,57,0.00,,,0.00,0,WeatherCatV1.10B1570,2013-03-08 00:46:00,
2013-03-07 19:51:00,39.2,25.3,30.29,WNW,297,5.0,7.0,57,0.00,,,0.00,0,WeatherCatV1.10B1570,2013-03-08 00:51:00,
2013-03-07 19:56:00,39.1,25.2,30.29,NW,325,5.0,9.0,57,0.00,,,0.00,0,WeatherCatV1.10B1570,2013-03-08 00:56:00,
2013-03-07 20:01:00,39.0,25.1,30.28,NNW,345,2.0,10.0,57,0.00,,,0.00,0,WeatherCatV1.10B1570,2013-03-08 01:01:00,
2013-03-07 20:06:00,38.9,25.0,30.28,NNW,328,8.0,14.0,57,0.00,,,0.00,0,WeatherCatV1.10B1570,2013-03-08 01:06:00,
2013-03-07 20:11:00,38.8,25.3,30.29,North,354,7.0,8.0,58,0.00,,,0.00,0,WeatherCatV1.10B1570,2013-03-08 01:11:00,
2013-03-07 20:16:00,38.7,25.2,30.29,NNW,332,8.0,10.0,58,0.00,,,0.00,0,WeatherCatV1.10B1570,2013-03-08 01:16:00,
2013-03-07 20:21:00,38.6,25.1,30.29,NNW,339,4.0,7.0,58,0.00,,,0.00,0,WeatherCatV1.10B1570,2013-03-08 01:21:00,
2013-03-07 20:26:00,38.3,25.2,30.29,WNW,291,7.0,10.0,59,0.00,,,0.00,0,WeatherCatV1.10B1570,2013-03-08 01:26:00,
2013-03-07 20:31:00,38.3,24.8,30.30,NW,307,11.0,14.0,58,0.00,,,0.00,0,WeatherCatV1.10B1570,2013-03-08 01:31:00,
2013-03-07 20:36:00,38.3,24.8,30.29,North,2,9.0,10.0,58,0.00,,,0.00,0,WeatherCatV1.10B1570,2013-03-08 01:36:00,
2013-03-07 20:41:00,38.2,24.7,30.30,North,0,7.0,9.0,58,0.00,,,0.00,0,WeatherCatV1.10B1570,2013-03-08 01:41:00,
2013-03-07 20:46:00,38.0,24.6,30.30,NW,324,6.0,11.0,58,0.00,,,0.00,0,WeatherCatV1.10B1570,2013-03-08 01:46:00,
2013-03-07 20:51:00,38.0,24.6,30.30,WSW,249,7.0,7.0,58,0.00,,,0.00,0,WeatherCatV1.10B1570,2013-03-08 01:51:00,
2013-03-07 20:56:00,37.9,24.5,30.30,North,357,2.0,7.0,58,0.00,,,0.00,0,WeatherCatV1.10B1570,2013-03-08 01:56:00,
2013-03-07 21:01:00,37.8,24.8,30.31,North,359,5.0,7.0,59,0.00,,,0.00,0,WeatherCatV1.10B1570,2013-03-08 02:01:00,
2013-03-07 21:06:00,37.7,24.7,30.31,NNW,327,2.0,5.0,59,0.00,,,0.00,0,WeatherCatV1.10B1570,2013-03-08 02:06:00,
2013-03-07 21:11:00,37.5,24.5,30.30,NNW,334,2.0,4.0,59,0.00,,,0.00,0,WeatherCatV1.10B1570,2013-03-08 02:11:00,
2013-03-07 21:16:00,37.3,24.7,30.30,NNW,336,5.0,6.0,60,0.00,,,0.00,0,WeatherCatV1.10B1570,2013-03-08 02:16:00,
2013-03-07 21:21:00,37.1,24.5,30.30,NW,308,2.0,4.0,60,0.00,,,0.00,0,WeatherCatV1.10B1570,2013-03-08 02:21:00,
2013-03-07 21:26:00,37.0,24.4,30.30,West,280,3.0,6.0,60,0.00,,,0.00,0,WeatherCatV1.10B1570,2013-03-08 02:26:00,
2013-03-07 21:31:00,37.0,24.8,30.30,NW,317,4.0,4.0,61,0.00,,,0.00,0,WeatherCatV1.10B1570,2013-03-08 02:31:00,
2013-03-07 21:36:00,36.8,24.6,30.30,NNW,333,4.0,6.0,61,0.00,,,0.00,0,WeatherCatV1.10B1570,2013-03-08 02:36:00,
2013-03-07 21:42:00,36.8,24.6,30.30,NW,321,2.0,2.0,61,0.00,,,0.00,0,WeatherCatV1.10B1570,2013-03-08 02:42:00,
2013-03-07 21:47:00,36.6,24.8,30.30,NW,307,3.0,6.0,62,0.00,,,0.00,0,WeatherCatV1.10B1570,2013-03-08 02:47:00,
2013-03-07 21:52:00,36.5,24.7,30.30,NW,318,3.0,6.0,62,0.00,,,0.00,0,WeatherCatV1.10B1570,2013-03-08 02:52:00,
2013-03-07 21:57:00,36.6,24.8,30.30,NNW,332,3.0,3.0,62,0.00,,,0.00,0,WeatherCatV1.10B1570,2013-03-08 02:57:00,
2013-03-07 22:02:00,36.5,24.7,30.30,North,352,1.0,5.0,62,0.00,,,0.00,0,WeatherCatV1.10B1570,2013-03-08 03:02:00,
2013-03-07 22:07:00,36.4,24.6,30.30,West,267,5.0,5.0,62,0.00,,,0.00,0,WeatherCatV1.10B1570,2013-03-08 03:07:00,
2013-03-07 22:12:00,36.3,24.9,30.31,WNW,295,5.0,7.0,63,0.00,,,0.00,0,WeatherCatV1.10B1570,2013-03-08 03:12:00,
2013-03-07 22:17:00,36.2,25.2,30.30,NW,317,3.0,6.0,64,0.00,,,0.00,0,WeatherCatV1.10B1570,2013-03-08 03:17:00,
2013-03-07 22:22:00,36.0,25.0,30.30,NW,309,4.0,5.0,64,0.00,,,0.00,0,WeatherCatV1.10B1570,2013-03-08 03:22:00,
2013-03-07 22:27:00,35.9,24.9,30.30,NNW,329,2.0,5.0,64,0.00,,,0.00,0,WeatherCatV1.10B1570,2013-03-08 03:27:00,
2013-03-07 22:32:00,35.9,24.9,30.31,West,265,5.0,5.0,64,0.00,,,0.00,0,WeatherCatV1.10B1570,2013-03-08 03:32:00,
2013-03-07 22:37:00,35.8,25.2,30.31,NW,317,2.0,5.0,65,0.00,,,0.00,0,WeatherCatV1.10B1570,2013-03-08 03:37:00,
2013-03-07 22:42:00,35.6,25.0,30.31,WNW,284,0.0,6.0,65,0.00,,,0.00,0,WeatherCatV1.10B1570,2013-03-08 03:42:00,
2013-03-07 22:47:00,35.5,24.9,30.31,NW,326,1.0,4.0,65,0.00,,,0.00,0,WeatherCatV1.10B1570,2013-03-08 03:47:00,
2013-03-07 22:52:00,35.3,24.7,30.31,North,352,2.0,4.0,65,0.00,,,0.00,0,WeatherCatV1.10B1570,2013-03-08 03:52:00,
2013-03-07 22:57:00,35.2,24.6,30.31,WNW,299,1.0,3.0,65,0.00,,,0.00,0,WeatherCatV1.10B1570,2013-03-08 03:57:00,
2013-03-07 23:02:00,35.1,24.9,30.31,WNW,300,0.0,3.0,66,0.00,,,0.00,0,WeatherCatV1.10B1570,2013-03-08 04:02:00,
2013-03-07 23:07:00,35.1,24.5,30.30,West,265,0.0,1.0,65,0.00,,,0.00,0,WeatherCatV1.10B1570,2013-03-08 04:07:00,
2013-03-07 23:12:00,35.0,24.4,30.30,West,273,2.0,3.0,65,0.00,,,0.00,0,WeatherCatV1.10B1570,2013-03-08 04:12:00,
2013-03-07 23:17:00,34.9,24.3,30.30,NW,325,2.0,2.0,65,0.00,,,0.00,0,WeatherCatV1.10B1570,2013-03-08 04:17:00,
2013-03-07 23:22:00,35.0,24.8,30.30,NW,317,1.0,4.0,66,0.00,,,0.00,0,WeatherCatV1.10B1570,2013-03-08 04:22:00,
2013-03-07 23:27:00,34.9,24.3,30.30,NW,309,8.0,8.0,65,0.00,,,0.00,0,WeatherCatV1.10B1570,2013-03-08 04:27:00,
2013-03-07 23:32:00,35.3,24.7,30.30,WNW,290,4.0,4.0,65,0.00,,,0.00,0,WeatherCatV1.10B1570,2013-03-08 04:32:00,
2013-03-07 23:37:00,35.5,24.5,30.30,NW,311,5.0,5.0,64,0.00,,,0.00,0,WeatherCatV1.10B1570,2013-03-08 04:37:00,
2013-03-07 23:42:00,35.5,24.9,30.30,West,263,1.0,3.0,65,0.00,,,0.00,0,WeatherCatV1.10B1570,2013-03-08 04:42:00,
2013-03-07 23:47:00,35.6,25.0,30.30,NW,325,1.0,4.0,65,0.00,,,0.00,0,WeatherCatV1.10B1570,2013-03-08 04:47:00,
2013-03-07 23:52:00,35.5,24.9,30.30,NNW,337,3.0,5.0,65,0.00,,,0.00,0,WeatherCatV1.10B1570,2013-03-08 04:52:00,
2013-03-07 23:57:00,35.3,24.7,30.30,NW,311,1.0,2.0,65,0.00,,,0.00,0,WeatherCatV1.10B1570,2013-03-08 04:57:00,